WetterOnline ( http://www.wetteronline.de )

Wetter aktuell Litzendorf

Aktuelles Wetter: Bamberg (243m)

6-stündlich | Neueste Meldungen
Ortszeit Temperatur Wetter
Fr, 22.02. 19:00 6.4° C leicht bewölkt
Fr, 22.02. 13:00 10.4° C bedeckt
Fr, 22.02. 7:00 8.4° C bedeckt
Fr, 22.02. 1:00 6.0° C bedeckt
Do, 21.02. 19:00 7.6° C bewölkt
Do, 21.02. 13:00 10.5° C bewölkt
Do, 21.02. 7:00 -2.1° C wolkig
Do, 21.02. 1:00 -0.5° C leicht bewölkt
Ortszeit Temperatur Wetter
Sa, 23.02. 0:00 1.0° C wolkenlos
Fr, 22.02. 23:40 1.4° C wolkenlos
Fr, 22.02. 23:30 1.6° C wolkenlos
Fr, 22.02. 23:20 1.6° C wolkenlos
Fr, 22.02. 23:10 2.1° C fast wolkenlos
Fr, 22.02. 23:00 2.1° C leicht bewölkt
Fr, 22.02. 22:50 2.1° C leicht bewölkt
Fr, 22.02. 22:30 2.9° C wolkenlos
Fr, 22.02. 22:00 3.6° C wolkig
Fr, 22.02. 21:30 3.6° C wolkig
Fr, 22.02. 21:00 3.7° C fast wolkenlos
Ortszeit Relative Feuchte Sichtweite
Fr, 22.02. 19:00 74% 45 km
Fr, 22.02. 13:00 68% 45 km
Fr, 22.02. 7:00 81% 12 km
Fr, 22.02. 1:00 86% 27 km
Do, 21.02. 19:00 74% 35 km
Do, 21.02. 13:00 64% 26 km
Do, 21.02. 7:00 95% 10 km
Do, 21.02. 1:00 94% 20 km
Ortszeit Relative Feuchte Sichtweite
Sa, 23.02. 0:00 79% 25 km
Fr, 22.02. 23:40 78% -
Fr, 22.02. 23:30 77% 27 km
Fr, 22.02. 23:20 77% -
Fr, 22.02. 23:10 75% -
Fr, 22.02. 23:00 75% 30 km
Fr, 22.02. 22:50 75% -
Fr, 22.02. 22:30 72% 30 km
Fr, 22.02. 22:00 73% 40 km
Fr, 22.02. 21:30 77% 30 km
Fr, 22.02. 21:00 76% 28 km
Ortszeit Niederschlagsmenge Niederschlagsart
Fr, 22.02. 19:00 0.1 l/m2 in 12 Std. -
Fr, 22.02. 13:00 0.1 l/m2 in 6 Std. Sprühregen
Fr, 22.02. 7:00 0.1 l/m2 in 12 Std. Regen
Fr, 22.02. 1:00 0.1 l/m2 in 6 Std. Sprühregen
Do, 21.02. 19:00 0.0 l/m2 in 12 Std. -
Do, 21.02. 13:00 0.0 l/m2 in 6 Std. -
Do, 21.02. 7:00 0.0 l/m2 in 12 Std. -
Do, 21.02. 1:00 0.0 l/m2 in 6 Std. -
Ortszeit Niederschlagsmenge Niederschlagsart
Sa, 23.02. 0:00 0.0 l/m2 in 1 Std. -
Fr, 22.02. 23:40 keine Meldung -
Fr, 22.02. 23:30 0.0 l/m2 in 1 Std. -
Fr, 22.02. 23:20 keine Meldung -
Fr, 22.02. 23:10 keine Meldung -
Fr, 22.02. 23:00 0.0 l/m2 in 1 Std. -
Fr, 22.02. 22:50 keine Meldung -
Fr, 22.02. 22:30 0.0 l/m2 in 1 Std. -
Fr, 22.02. 22:00 0.0 l/m2 in 1 Std. -
Fr, 22.02. 21:30 0.0 l/m2 in 1 Std. -
Fr, 22.02. 21:00 0.0 l/m2 in 1 Std. -
Ortszeit Stärke Spitze Richtung
km/h Bft. km/h Grad Sektor
Fr, 22.02. 19:00 11 2 29 20° N
Fr, 22.02. 13:00 15 3 31 350° N
Fr, 22.02. 7:00 11 2 22 310° NW
Fr, 22.02. 1:00 4 1 7 80° O
Do, 21.02. 19:00 4 1 29 180° S
Do, 21.02. 13:00 4 1 14 290° W
Do, 21.02. 7:00 0 0 11 - -
Do, 21.02. 1:00 4 1 7 160° S
Ortszeit Stärke Spitze Richtung
km/h Bft. km/h Grad Sektor
Sa, 23.02. 0:00 7 2 14 20° N
Fr, 22.02. 23:40 7 2 - 20° N
Fr, 22.02. 23:30 11 2 14 340° N
Fr, 22.02. 23:20 11 2 - 340° N
Fr, 22.02. 23:10 9 2 - 350° N
Fr, 22.02. 23:00 9 2 24 60° NO
Fr, 22.02. 22:50 9 2 - 60° NO
Fr, 22.02. 22:30 13 3 24 60° NO
Fr, 22.02. 22:00 14 3 22 70° O
Fr, 22.02. 21:30 9 2 17 50° NO
Fr, 22.02. 21:00 9 2 19 30° NO
Ortszeit Untergrenze Bedeckung Gattung
total tief tief mittel hoch
Fr, 22.02. 19:00 1230 m 2/8 2/8 - - -
Fr, 22.02. 13:00 720 m 8/8 8/8 - - -
Fr, 22.02. 7:00 1380 m 8/8 8/8 - - -
Fr, 22.02. 1:00 960 m 8/8 8/8 - - -
Do, 21.02. 19:00 1800 m 7/8 7/8 - - -
Do, 21.02. 13:00 810 m 7/8 7/8 - - -
Do, 21.02. 7:00 4200 m 6/8 4/8 - - -
Do, 21.02. 1:00 2400 m 3/8 3/8 - - -
Ortszeit Bedeckungsgrad in Achtel und Wolkenuntergrenze
Sa, 23.02. 0:00 keine Wolken
Fr, 22.02. 23:40 keine Wolken
Fr, 22.02. 23:30 keine Wolken
Fr, 22.02. 23:20 keine Wolken
Fr, 22.02. 23:10 2(10500m)
Fr, 22.02. 23:00 5(10500m)
Fr, 22.02. 22:50 5(10500m)
Fr, 22.02. 22:30 1(10500m)
Fr, 22.02. 22:00 5(600m)
Fr, 22.02. 21:30 5(630m)
Fr, 22.02. 21:00 1(8400m)
Ortszeit Luftdruck NN (hPa) Tendenz (hPa in 3 Std.)
Fr, 22.02. 19:00 1039 + 1,8
Fr, 22.02. 13:00 1035 + 1,6
Fr, 22.02. 7:00 1031 + 0,9
Fr, 22.02. 1:00 1029 + 0,2
Do, 21.02. 19:00 1029 + 0,8
Do, 21.02. 13:00 1028 - 0,5
Do, 21.02. 7:00 1029 + 0,3
Do, 21.02. 1:00 1028 + 0,4
Ortszeit Luftdruck NN (hPa) Tendenz (hPa in 3 Std.)
Sa, 23.02. 0:00 1042 + 1,2
Fr, 22.02. 23:40 1042 keine Meldung
Fr, 22.02. 23:30 1042 + 1,6
Fr, 22.02. 23:20 1042 keine Meldung
Fr, 22.02. 23:10 1042 keine Meldung
Fr, 22.02. 23:00 1042 + 1,9
Fr, 22.02. 22:50 1042 keine Meldung
Fr, 22.02. 22:30 1041 + 1,8
Fr, 22.02. 22:00 1041 + 2,0
Fr, 22.02. 21:30 1041 + 2,0
Fr, 22.02. 21:00 1040 + 1,8
Ortszeit Schneehöhe (cm)
Fr, 22.02. 19:00 0
Fr, 22.02. 13:00 0
Fr, 22.02. 7:00 0
Fr, 22.02. 1:00 0
Do, 21.02. 19:00 0
Do, 21.02. 13:00 0
Do, 21.02. 7:00 0
Do, 21.02. 1:00 0
Ortszeit Schneehöhe (cm)
Sa, 23.02. 0:00 0
Fr, 22.02. 23:40 0
Fr, 22.02. 23:30 0
Fr, 22.02. 23:20 0
Fr, 22.02. 23:10 0
Fr, 22.02. 23:00 0
Fr, 22.02. 22:50 0
Fr, 22.02. 22:30 0
Fr, 22.02. 22:00 0
Fr, 22.02. 21:30 0
Fr, 22.02. 21:00 0
Link zu dieser Seite / Seite empfehlen

Das Wetter in ...